Home > Weather > Namur > Past weeks

Flag for Belgium Past Weather in Namur, Belgium — Yesterday and Last 2 Weeks

Now
73 °F

Passing clouds.


Feels Like: 76 °F
Forecast: 65 / 87 °F
Wind: 5 mph from Southeast

Location: Charleroi / Gosselies

Current Time: Aug 23, 2016 at 11:07:03 PM

Latest Report: Aug 23, 2016 at 10:20 PM


Visibility: N/A

Pressure: 30.21 "Hg

Humidity: 61%

Dew Point: 59 °F

Location of NamurLocation

Past Weather in Namur — Graph

°F

Namur Temperature Yesterday

Maximum temperature yesterday: 77 °F (at 5:20 PM)
Minimum temperature yesterday: 55 °F (at 12:50 AM)
Average temperature yesterday: 65 °F

High & Low Weather Summary for the Past Weeks

 TemperatureHumidityPressure
High82 °F (Aug 23, 2:50 PM)100% (Aug 22, 4:50 AM)30.33 "Hg (Aug 22, 4:50 AM)
Low46 °F (Aug 11, 4:50 AM)39% (Aug 17, 4:50 PM)29.80 "Hg (Aug 18, 4:20 AM)
Average63 °F74%30.12 "Hg
* Reported Aug 8 9:20 PM — Aug 23 9:50 PM, Namur, Weather by CustomWeather, © 2016

Note: Actual official high and low records may vary slightly from our data, if they occured in-between our weather recording intervals... More about our weather records

Advertising

Namur Weather History for the Previous 24 Hours

Scroll right to see more
 ConditionsComfort  
Time TempWeatherWind HumidityBarometerVisibility
9:50 PM
Tue, Aug 23
73 °FClear.6 mph61%30.21 "Hg10 mi
9:20 PM75 °FSunny.7 mph57%30.21 "Hg10 mi
8:50 PM75 °FPassing clouds.5 mph54%30.21 "HgN/A
8:20 PM79 °FSunny.3 mph45%30.21 "Hg10 mi
7:50 PM81 °FSunny.5 mph42%30.21 "Hg10 mi
7:20 PM81 °FSunny.8 mph39%30.24 "Hg10 mi
6:50 PM82 °FSunny.8 mph40%30.24 "Hg10 mi
6:20 PM82 °FPassing clouds.8 mph40%30.24 "HgN/A
5:50 PM82 °FPassing clouds.9 mph42%30.24 "HgN/A
5:20 PM82 °FPassing clouds.7 mph45%30.24 "HgN/A
4:50 PM82 °FPassing clouds.7 mph42%30.27 "HgN/A
4:20 PM82 °FPassing clouds.8 mph45%30.27 "HgN/A
3:50 PM82 °FPassing clouds.7 mph48%30.27 "HgN/A
3:20 PM82 °FPassing clouds.7 mph48%30.27 "HgN/A
2:50 PM82 °FPassing clouds.6 mph48%30.30 "HgN/A
2:20 PM81 °FPassing clouds.6 mph48%30.30 "HgN/A
1:50 PM81 °FPassing clouds.5 mph45%30.30 "HgN/A
1:20 PM81 °FPassing clouds.6 mph48%30.30 "HgN/A
12:50 PM81 °FPassing clouds.6 mph48%30.33 "HgN/A
12:20 PM79 °FPassing clouds.5 mph51%30.33 "HgN/A
11:50 AM77 °FPassing clouds.8 mph54%30.33 "HgN/A
11:20 AM77 °FPassing clouds.8 mph54%30.33 "HgN/A
10:50 AM75 °FPassing clouds.6 mph57%30.33 "HgN/A
10:20 AM73 °FPassing clouds.6 mph65%30.33 "HgN/A
9:50 AM70 °FSunny.8 mph64%30.33 "Hg10 mi
9:20 AM68 °FSunny.7 mph69%30.33 "Hg10 mi
8:50 AM66 °FSunny.6 mph73%30.33 "Hg10 mi
8:20 AM63 °FSunny.7 mph83%30.33 "Hg10 mi
7:50 AM61 °FPassing clouds.6 mph88%30.33 "HgN/A
7:20 AM59 °FPassing clouds.6 mph88%30.33 "HgN/A
6:50 AM59 °FPassing clouds.3 mph88%30.33 "HgN/A
6:20 AM59 °FClear.2 mph88%30.33 "Hg10 mi
5:50 AM59 °FClear.3 mph88%30.33 "Hg10 mi
5:20 AM59 °FPassing clouds.5 mph88%30.33 "HgN/A
4:50 AM59 °FClear.5 mph88%30.33 "Hg10 mi
4:20 AM59 °FClear.3 mph94%30.33 "Hg10 mi
3:50 AM59 °FClear.3 mph94%30.33 "Hg10 mi
3:20 AM59 °FClear.1 mph94%30.33 "Hg10 mi
2:50 AM59 °FClear.1 mph88%30.33 "Hg10 mi
2:20 AM59 °FClear.3 mph94%30.33 "Hg10 mi
1:50 AM61 °FClear.3 mph88%30.33 "Hg10 mi
1:20 AM61 °FClear.No wind88%30.33 "Hg10 mi
12:50 AM63 °FClear.1 mph88%30.33 "Hg10 mi
12:20 AM63 °FClear.3 mph83%30.33 "Hg10 mi
11:50 PM
Mon, Aug 22
63 °FClear.1 mph83%30.33 "Hg10 mi
11:20 PM63 °FClear.No wind83%30.33 "Hg10 mi
Weather by CustomWeather, © 2016

See weather overviewHow to use our weather pages